Location: ????????
(56.1167°N, 38.6333°E)
Time: 21:25:09
(UTC+00:00)

Cosmos 841 Rocket - Pass Details

Date: 18 November 2025
Orbit: 742 x 768 km, 74.0° (Epoch: 06 December)

Event Time Altitude Azimuth Distance (km) Brightness Sun altitude
Rises 15:44:52 0° 330° (NNW) 3,249 7.1 -20.7°
Reaches altitude 10° 15:47:16 10° 329° (NNW) 2,320 6.3 -21.0°
Maximum altitude 15:52:30 70° 246° (WSW) 819 3.7 -21.8°
Drops below altitude 10° 15:57:43 10° 164° (SSE) 2,305 5.8 -22.5°
Enters shadow 15:58:44 - 163° (SSE) 2,698 6.2 -22.6°
